FW7055 Weather Reports


time (UTC)temp
C
wind
direction
speed
KPH
gust
KPH
rain 1hr
cm
rain 24hr
cm
rain mn
cm
humidity
%
barometer
mb
20260503211412 23 59 3.2 4.8 0.00 0.00 0.00 48 1012.2
20260503210907 23 54 4.8 4.8 0.00 0.00 0.00 49 1012.5
20260503210405 23 213 4.8 8.0 0.00 0.00 0.00 50 1012.4
20260503205904 23 278 9.7 12.9 0.00 0.00 0.00 50 1012.5
20260503205402 23 317 4.8 8.0 0.00 0.00 0.00 50 1012.6
20260503204858 23 17 8.0 12.9 0.00 0.00 0.00 52 1012.6
20260503204356 23 263 9.7 12.9 0.00 0.00 0.00 51 1012.6
20260503203853 23 205 1.6 1.6 0.00 0.00 0.00 51 1012.6
20260503203350 23 23 4.8 4.8 0.00 0.00 0.00 52 1012.8
20260503202847 23 0 4.8 4.8 0.00 0.00 0.00 53 1012.9
20260503202345 23 1 8.0 11.3 0.00 0.00 0.00 51 1012.8
20260503201843 23 124 9.7 16.1 0.00 0.00 0.00 52 1012.9
20260503201340 22 239 8.0 9.7 0.00 0.00 0.00 54 1012.9
20260503200837 22 256 11.3 12.9 0.00 0.00 0.00 54 1013.0
20260503200333 22 252 6.4 9.7 0.00 0.00 0.00 54 1013.0
20260503195830 22 49 6.4 9.7 0.00 0.00 0.00 53 1013.3
20260503195327 22 250 6.4 9.7 0.00 0.00 0.00 54 1013.2
20260503194824 21 40 1.6 3.2 0.00 0.00 0.00 57 1013.3
20260503194320 23 235 6.4 9.7 0.00 0.00 0.00 54 1013.3
20260503193816 23 12 3.2 3.2 0.00 0.00 0.00 55 1013.3
20260503193312 23 26 6.4 9.7 0.00 0.00 0.00 54 1013.2
20260503192808 22 359 6.4 9.7 0.00 0.00 0.00 58 1013.5
20260503192305 22 291 9.7 9.7 0.00 0.00 0.00 58 1013.7
20260503191800 22 217 8.0 9.7 0.00 0.00 0.00 59 1013.7
20260503191257 22 194 3.2 3.2 0.00 0.00 0.00 59 1013.9
20260503190754 21 300 1.6 3.2 0.00 0.00 0.00 56 1013.8
20260503190251 22 35 6.4 8.0 0.00 0.00 0.00 59 1013.7
20260503185748 21 245 6.4 8.0 0.00 0.00 0.00 59 1013.9
20260503185244 21 254 8.0 11.3 0.00 0.00 0.00 61 1014.0
20260503184738 21 268 9.7 11.3 0.00 0.00 0.00 59 1014.0
20260503184235 21 288 4.8 4.8 0.00 0.00 0.00 59 1014.0
20260503183731 22 256 11.3 16.1 0.00 0.00 0.00 58 1014.0
20260503183229 21 145 3.2 4.8 0.00 0.00 0.00 59 1014.1
20260503182727 22 226 0.0 1.6 0.00 0.00 0.00 59 1013.9
20260503182225 21 228 4.8 4.8 0.00 0.00 0.00 60 1014.1
20260503181722 22 185 3.2 3.2 0.00 0.00 0.00 58 1014.2
20260503181219 21 25 6.4 9.7 0.00 0.00 0.00 59 1014.1
20260503180715 21 245 4.8 4.8 0.00 0.00 0.00 62 1014.3
20260503180214 20 245 6.4 8.0 0.00 0.00 0.00 63 1014.4
20260503175710 20 273 8.0 9.7 0.00 0.00 0.00 63 1014.4
20260503175208 21 270 3.2 3.2 0.00 0.00 0.00 62 1014.4
20260503174703 21 268 6.4 9.7 0.00 0.00 0.00 60 1014.3
20260503174201 22 109 4.8 8.0 0.00 0.00 0.00 58 1014.3
20260503173656 22 122 0.0 1.6 0.00 0.00 0.00 59 1014.4
20260503173152 21 354 8.0 9.7 0.00 0.00 0.00 61 1014.6
20260503172650 21 25 4.8 8.0 0.00 0.00 0.00 62 1014.6
20260503172147 21 240 1.6 3.2 0.00 0.00 0.00 63 1014.5
20260503171643 21 15 4.8 8.0 0.00 0.00 0.00 63 1014.3
20260503171141 21 20 6.4 8.0 0.00 0.00 0.00 62 1014.6
20260503170638 21 77 1.6 3.2 0.00 0.00 0.00 61 1014.8
20260503170134 21 120 3.2 4.8 0.00 0.00 0.00 62 1014.6
20260503150526 17 34 1.6 1.6 0.00 0.00 0.00 74 1015.0
20260503131419 11 98 1.6 1.6 0.00 0.00 0.00 99 1014.9
20260503130916 11 99 0.0 0.0 0.00 0.00 0.00 99 1014.6
20260503130413 11 99 0.0 0.0 0.00 0.00 0.00 99 1014.9
20260503110817 13 93 3.2 3.2 0.00 0.00 0.00 93 1015.0
20260503110314 13 90 1.6 1.6 0.00 0.00 0.00 93 1014.9
20260503100240 13 95 1.6 1.6 0.00 0.00 0.00 88 1015.1
20260503090200 13 97 3.2 3.2 0.00 0.00 0.00 84 1014.8
20260503081630 14 97 1.6 1.6 0.00 0.00 0.00 75 1014.9
20260503081127 15 101 1.6 3.2 0.00 0.00 0.00 77 1014.9
20260503080623 15 101 1.6 1.6 0.00 0.00 0.00 75 1015.0
20260503080120 15 101 1.6 1.6 0.00 0.00 0.00 75 1014.7
20260503072557 15 113 1.6 1.6 0.00 0.00 0.00 73 1014.7
20260503072054 16 113 3.2 3.2 0.00 0.00 0.00 72 1014.7
20260503071550 16 114 0.0 1.6 0.00 0.00 0.00 70 1014.8
20260503071047 16 113 1.6 1.6 0.00 0.00 0.00 69 1014.9
20260503070543 16 113 1.6 1.6 0.00 0.00 0.00 66 1014.9
20260503054957 18 24 4.8 8.0 0.00 0.03 0.03 55 1014.4
20260503054453 18 41 6.4 8.0 0.00 0.03 0.03 54 1014.5
20260503053951 18 52 4.8 8.0 0.00 0.03 0.03 54 1014.3
20260503053449 18 22 6.4 8.0 0.00 0.03 0.03 54 1014.5
20260503052945 18 40 4.8 9.7 0.00 0.03 0.03 55 1014.4
20260503052443 18 38 4.8 4.8 0.00 0.03 0.03 55 1014.5
20260503051938 18 26 8.0 11.3 0.00 0.03 0.03 55 1014.4
20260503051434 18 64 1.6 1.6 0.00 0.03 0.03 57 1014.6
20260503050932 18 60 4.8 8.0 0.00 0.03 0.03 56 1014.4
20260503050427 19 75 3.2 3.2 0.00 0.03 0.03 57 1014.5
20260503045926 19 55 1.6 3.2 0.00 0.03 0.03 56 1014.4
20260503045423 18 77 3.2 4.8 0.00 0.03 0.03 56 1014.4
20260503044919 19 44 4.8 4.8 0.00 0.03 0.03 57 1014.3
20260503044416 19 36 4.8 4.8 0.00 0.03 0.03 58 1014.2
20260503043914 18 72 9.7 12.9 0.00 0.03 0.03 58 1014.2
20260503043410 18 35 6.4 9.7 0.00 0.03 0.03 60 1014.3
20260503042907 18 36 6.4 9.7 0.00 0.03 0.03 61 1014.0
20260503042403 18 22 4.8 4.8 0.00 0.03 0.03 63 1014.1
20260503041859 18 80 1.6 3.2 0.00 0.03 0.03 66 1014.0
20260503041357 18 80 1.6 1.6 0.00 0.03 0.03 64 1014.1
20260503040854 18 96 3.2 3.2 0.00 0.03 0.03 65 1014.1
20260503040352 18 54 1.6 1.6 0.00 0.03 0.03 64 1013.8
20260503035848 18 46 1.6 1.6 0.00 0.03 0.03 65 1013.9
20260503035345 18 41 1.6 1.6 0.00 0.03 0.03 66 1013.6
20260503034843 18 64 0.0 0.0 0.00 0.03 0.03 67 1013.5
20260503034340 18 74 3.2 3.2 0.00 0.03 0.03 67 1013.5
20260503033837 18 75 0.0 0.0 0.00 0.03 0.03 67 1013.5
20260503033335 17 111 0.0 0.0 0.00 0.03 0.03 67 1013.5
20260503032832 18 111 0.0 0.0 0.00 0.03 0.03 68 1013.5
20260503032331 18 111 0.0 0.0 0.00 0.03 0.03 66 1013.2
20260503031828 18 112 0.0 1.6 0.00 0.03 0.03 65 1013.2
20260503031326 18 111 0.0 1.6 0.00 0.03 0.03 64 1013.1
20260503030822 18 27 0.0 3.2 0.00 0.03 0.03 64 1013.3
20260503030319 19 213 1.6 3.2 0.00 0.03 0.03 64 1013.2
20260503025815 19 99 0.0 1.6 0.00 0.03 0.03 62 1013.0
20260503025313 20 48 1.6 1.6 0.00 0.03 0.03 61 1012.9
20260503024809 20 123 1.6 1.6 0.00 0.03 0.03 60 1012.9
20260503024306 20 172 3.2 3.2 0.00 0.03 0.03 61 1012.9
20260503023803 20 261 6.4 8.0 0.00 0.03 0.03 58 1013.1
20260503023300 21 124 1.6 1.6 0.00 0.03 0.03 59 1012.9
20260503022756 21 150 0.0 0.0 0.00 0.03 0.03 58 1012.8
20260503022251 21 33 3.2 3.2 0.00 0.03 0.03 58 1013.0
20260503021748 21 162 3.2 3.2 0.00 0.03 0.03 56 1013.1
20260503021244 21 273 1.6 3.2 0.00 0.03 0.03 56 1012.8
20260503020742 21 96 1.6 1.6 0.00 0.03 0.03 56 1013.1
20260503020239 22 160 0.0 1.6 0.00 0.03 0.03 56 1013.0
20260503015735 21 51 3.2 4.8 0.00 0.03 0.03 56 1012.8
20260503015232 21 38 4.8 8.0 0.00 0.03 0.03 56 1012.9
20260503014728 22 233 1.6 3.2 0.00 0.03 0.03 55 1012.9
20260503014227 22 21 4.8 4.8 0.00 0.03 0.03 55 1012.7
20260503013723 22 63 3.2 3.2 0.00 0.03 0.03 54 1012.9
20260503013221 22 41 3.2 3.2 0.00 0.03 0.03 53 1012.9
20260503012718 22 250 4.8 4.8 0.00 0.03 0.03 54 1013.0
20260503012215 22 348 4.8 4.8 0.00 0.03 0.03 55 1013.1
20260503011712 22 28 4.8 8.0 0.00 0.03 0.03 54 1013.1
20260503011209 22 39 1.6 1.6 0.00 0.03 0.03 54 1013.0
20260503010705 22 322 4.8 4.8 0.00 0.03 0.03 53 1013.2
20260503010202 22 40 3.2 3.2 0.00 0.03 0.03 53 1012.8
20260503005659 22 31 4.8 4.8 0.00 0.03 0.03 54 1013.1
20260503005156 22 91 1.6 3.2 0.00 0.03 0.03 55 1013.2
20260503004652 22 16 4.8 8.0 0.00 0.03 0.03 53 1013.2
20260503004151 22 26 3.2 4.8 0.00 0.03 0.03 52 1013.4
20260503003648 22 43 1.6 3.2 0.00 0.03 0.03 54 1013.5
20260503003145 22 252 4.8 4.8 0.00 0.03 0.03 54 1013.2
20260503002641 22 298 4.8 8.0 0.00 0.03 0.03 55 1013.2
20260503002138 22 47 3.2 3.2 0.00 0.03 0.03 55 1013.3
20260503001634 22 285 12.9 16.1 0.00 0.03 0.03 54 1013.3
20260503001131 22 202 3.2 3.2 0.00 0.03 0.03 53 1013.4
20260503000629 22 209 4.8 8.0 0.00 0.03 0.03 55 1013.3
20260503000126 22 42 4.8 8.0 0.00 0.03 0.03 53 1013.6
20260502235622 22 17 4.8 8.0 0.00 0.03 0.03 54 1013.4
20260502235121 22 144 1.6 1.6 0.00 0.03 0.03 52 1013.4
20260502234616 22 2 3.2 3.2 0.00 0.03 0.03 52 1013.6
20260502234114 22 7 4.8 4.8 0.00 0.03 0.03 52 1013.8
20260502233609 22 204 4.8 8.0 0.00 0.03 0.03 53 1013.7
20260502233107 22 335 11.3 17.7 0.00 0.03 0.03 51 1013.8
20260502232602 22 183 1.6 1.6 0.00 0.03 0.03 51 1014.0
20260502232100 22 42 4.8 9.7 0.00 0.03 0.03 51 1013.8
20260502231557 22 17 4.8 8.0 0.00 0.03 0.03 53 1014.2
20260502231055 22 305 4.8 8.0 0.00 0.03 0.03 54 1014.2
20260502230553 22 359 6.4 8.0 0.00 0.03 0.03 54 1014.3
20260502230051 22 14 3.2 3.2 0.00 0.03 0.03 54 1014.2
20260502225546 21 269 17.7 20.9 0.00 0.03 0.03 54 1014.3
20260502225043 22 233 9.7 11.3 0.00 0.03 0.03 55 1014.4
20260502224539 22 248 9.7 14.5 0.00 0.03 0.03 56 1014.5
20260502224037 22 45 4.8 9.7 0.00 0.03 0.03 58 1014.6
20260502223534 22 8 4.8 4.8 0.00 0.03 0.03 57 1014.3
20260502223033 22 26 4.8 4.8 0.00 0.03 0.03 56 1014.7
20260502222529 21 11 4.8 4.8 0.00 0.03 0.03 60 1014.7
20260502222026 21 294 4.8 8.0 0.00 0.03 0.03 60 1015.0
20260502221521 21 242 1.6 1.6 0.00 0.03 0.03 61 1015.0
20260502221019 20 257 6.4 9.7 0.00 0.03 0.03 63 1014.9
20260502220514 21 228 4.8 4.8 0.00 0.03 0.03 63 1015.0
20260502220011 20 229 6.4 9.7 0.00 0.03 0.03 63 1015.1
20260502215509 21 255 4.8 4.8 0.00 0.03 0.03 64 1015.1
20260502215005 21 322 11.3 14.5 0.00 0.03 0.03 63 1015.3
20260502214503 20 193 4.8 4.8 0.00 0.03 0.03 64 1015.2
20260502214000 20 236 8.0 9.7 0.00 0.03 0.03 64 1015.1
20260502213456 21 255 4.8 4.8 0.00 0.03 0.03 61 1015.4
20260502212955 21 256 11.3 12.9 0.00 0.03 0.03 61 1015.4
20260502212453 21 88 1.6 3.2 0.00 0.03 0.03 63 1015.5
20260502211950 20 359 9.7 12.9 0.00 0.03 0.03 64 1015.4